Find Starlink 34059

NORAD ID: 63872 Int'l Des: 2025-094 Owner: SPXS Country: US Constellation: starlink operational
LEOCIRCULAR

現在のビュー

3D地球を読み込み中...

Starlink 34059について

説明を読み込み中...

次回通過

Passes for default location (London). Set your location on the main map for personalized predictions.

高度履歴

Loading altitude history...

軌道要素

1 63872U 25094J 26149.09644973 .00003436 00000-0 29553-3 0 9993
2 63872 70.0026 31.8780 0002753 265.2945 94.7900 14.98337799 59249
Epoch: May 29, 2026 • Age: 25 hours

現在のステータス

高度 575.6 km
速度 7.57 km/s
衛星直下点 -9.64°S, 82.77°W
打ち上げ日 May 10, 2025
運用期間 1 years
タイプ internet

技術仕様

分類 Payload
質量 575.00 kg
乾燥質量 530.00 kg
総質量 575.00 kg
長さ 0.30 m
直径 4.10 m
スパン 29.00 m
形状 Box + pan
製造者 SPXS
バスタイプ Starlink V2MO
フェーズステータス In Orbit
所有者/国 SPXS/US

Most Searched